Tracking 30056 objects as of 10-Dec-2024
HD Live streaming from Space Station
objects crossing your sky now

SL-24 R/B

Track SL-24 R/B now!
10-day predictions


NORAD ID: 40541
Int'l Code: 2015-014C
Perigee: 530.5 km
Apogee: 1,432.7 km
Inclination: 97.4 °
Period: 104.6 minutes
Semi major axis: 7352 km
RCS: Unknown
Launch date: March 25, 2015
Source: Commonwealth of Independent States (former USSR) (CIS)
Launch site: Orenburg, Russia (OREN)

Note: This is a ROCKET BODY
Your satellite tracking list
Your tracking list is empty




NASA's NSSDC Master Catalog

Two Line Element Set (TLE):
1 40541U 15014C   24345.05858162  .00002207  00000-0  54465-3 0  9996
2 40541  97.3827 269.3062 0613483   0.1130   0.0063 13.77019019487501
Source of the keplerian elements: AFSPC